Location: Detroit
(42.3310°N, 83.0460°W)
Time: 15:29:38
(UTC-05:00)

X-37B - Pass Details

Date: 10 December 2021
Orbit: 334 x 337 km, 45.0° (Epoch: 11 January)

Event Time Altitude Azimuth Distance (km) Brightness Sun altitude
Rises 17:43:15 0° 250° (WSW) 2,098 6.8 -8.0°
Reaches altitude 10° 17:45:15 10° 250° (WSW) 1,263 4.9 -8.3°
Maximum altitude 17:48:04 88° 166° (SSE) 337 0.2 -8.8°
Enters shadow 17:50:26 14° 72° (ENE) 1,067 2.1 -9.2°
